Location: Boćki
(52.6512°N, 23.0459°E)
Time: 02:17:34
(UTC+01:00)

ISS - Pass Details

Date: 26 January 2019
Orbit: 403 x 411 km, 51.6° (Epoch: 19 February)

Event Time Altitude Azimuth Distance (km) Brightness Sun altitude
Rises 19:14:44 0° 256° (WSW) 2,337 1.1 -29.0°
Reaches altitude 10° 19:16:49 10° 254° (WSW) 1,478 -0.2 -29.3°
Enters shadow 19:17:22 14° 253° (WSW) 1,256 -0.7 -29.4°
